Location: Northcutt
(34.7304°N, 84.4305°W)
Time: 17:03:27
(UTC+00:00)

SR - Pass Details

Date: 11 October 2022
Orbit: 577 x 874 km, 66.7° (Epoch: 05 December)

Event Time Altitude Azimuth Distance (km) Brightness Sun altitude
Rises 10:21:13 0° 324° (NW) 3,219 - -17.0°
Reaches altitude 10° 10:23:52 10° 315° (NW) 2,238 - -16.5°
Exits shadow 10:25:52 21° 301° (WNW) 1,578 ? -16.1°
Maximum altitude 10:28:27 35° 251° (WSW) 1,115 ? -15.5°
Drops below altitude 10° 10:32:39 10° 186° (S) 2,052 ? -14.7°
Sets 10:35:00 0° 177° (S) 2,915 ? -14.2°
